Flag for Russia Weather past 2 weeks in Kaliningrad, Russia

Now
32 °F

Snow flurries. Mostly cloudy.


Feels Like: 29 °F
Forecast: 30 / 39 °F
Wind: 3 mph from South

Location: Kaliningrad/Khrabrovo Airport

Current Time: Mar 4, 2015 at 9:49:56 AM

Latest Report: Mar 4, 2015 at 9:00 AM


Visibility: 3 mi

Pressure: 29.80 "Hg

Humidity: 100%

Dew point: 32 °F

Location of KaliningradLocation

Historic Weather in Kaliningrad — Graph

°F

Kaliningrad temperature yesterday

Maximum temperature yesterday: 41 °F (at 2:00 PM)
Minimum temperature yesterday: 36 °F (at 10:30 PM)
Average temperature yesterday: 39 °F

Past Weeks' High & Low Weather Summary

 TemperatureHumidityPressure
High48 °F (Feb 21, 1:00 PM)100% (Feb 23, 4:00 AM)30.63 "Hg (Feb 23, 4:00 AM)
Low21 °F (Feb 17, 8:00 AM)19% (Feb 17, 1:00 PM)29.33 "Hg (Mar 2, 6:00 PM)
Average38 °F80%29.91 "Hg
* Reported Feb 17 8:00 AM — Mar 4 8:30 AM, Kaliningrad, Weather by CustomWeather, © 2015

Note: Actual official high and low records may vary slightly from our data, if they occured in-between our weather recording intervals... More about our weather records

Advertising

Kaliningrad weather history for previous 24 hours

 ConditionsComfort  
Time TempWeatherWind HumidityBarometerVisibility
8:30 AM
Wed, Mar 4
32 °FSnow flurries. Mostly cloudy.6 mph100%29.80 "Hg2 mi
8:00 AM32 °FHeavy snow. Mostly cloudy.3 mph100%29.80 "Hg1 mi
7:30 AM32 °FHeavy snow. Mostly cloudy.6 mph100%29.80 "Hg1 mi
7:00 AM32 °FSnow showers. Mostly cloudy.6 mph100%29.80 "Hg1 mi
6:30 AM32 °FLight rain. Mostly cloudy.6 mph93%29.83 "Hg1 mi
6:00 AM34 °FLight rain. Mostly cloudy.6 mph87%29.83 "Hg5 mi
5:30 AM32 °FMostly cloudy.6 mph93%29.83 "HgN/A
5:00 AM34 °FOvercast.3 mph87%29.83 "HgN/A
4:30 AM32 °FOvercast.6 mph93%29.83 "HgN/A
4:00 AM32 °FPassing clouds.6 mph93%29.86 "HgN/A
3:00 AM34 °FPassing clouds.6 mph87%29.86 "HgN/A
2:00 AM34 °FPassing clouds.6 mph87%29.89 "HgN/A
1:00 AM34 °FPassing clouds.10 mph87%29.89 "HgN/A
12:00 AM36 °FPassing clouds.10 mph87%29.89 "HgN/A
11:30 PM
Tue, Mar 3
37 °FPassing clouds.13 mph75%29.89 "HgN/A
11:00 PM36 °FPassing clouds.10 mph81%29.89 "HgN/A
10:30 PM36 °FPassing clouds.10 mph87%29.89 "HgN/A
10:00 PM37 °FPassing clouds.10 mph81%29.89 "HgN/A
9:00 PM37 °FPassing clouds.15 mph81%29.86 "HgN/A
8:30 PM39 °FPassing clouds.15 mph75%29.86 "HgN/A
8:00 PM39 °FPartly sunny.13 mph81%29.86 "HgN/A
7:30 PM39 °FPartly sunny.15 mph81%29.83 "HgN/A
7:00 PM39 °FPartly sunny.17 mph81%29.83 "HgN/A
6:30 PM39 °FPartly sunny.17 mph81%29.83 "HgN/A
6:00 PM39 °FPartly sunny.17 mph81%29.80 "HgN/A
5:30 PM39 °FPartly sunny.15 mph81%29.80 "HgN/A
5:00 PM39 °FPartly sunny.15 mph81%29.77 "HgN/A
4:30 PM39 °FPartly sunny.20 mph81%29.77 "HgN/A
4:00 PM41 °FPartly sunny.22 mph76%29.77 "HgN/A
3:30 PM41 °FMostly cloudy.22 mph76%29.74 "HgN/A
3:00 PM41 °FMostly cloudy.20 mph76%29.74 "HgN/A
2:30 PM41 °FMostly cloudy.22 mph76%29.71 "HgN/A
2:00 PM41 °FMostly cloudy.20 mph81%29.71 "HgN/A
1:30 PM39 °FMostly cloudy.22 mph87%29.71 "HgN/A
1:00 PM39 °FMostly cloudy.24 mph87%29.68 "HgN/A
12:30 PM39 °FMostly cloudy.22 mph87%29.68 "HgN/A
12:00 PM39 °FMostly cloudy.24 mph81%29.65 "HgN/A
11:30 AM39 °FSprinkles. Mostly cloudy.22 mph87%29.65 "HgN/A
11:00 AM37 °FSprinkles. Mostly cloudy.22 mph93%29.62 "HgN/A
10:30 AM37 °FSprinkles. Mostly cloudy.22 mph93%29.62 "Hg4 mi
10:00 AM37 °FSprinkles. Mostly cloudy.20 mph93%29.62 "Hg4 mi
9:30 AM37 °FSprinkles. Mostly cloudy.15 mph93%29.59 "HgN/A
9:00 AM37 °FSprinkles. Mostly cloudy.15 mph93%29.59 "Hg5 mi
Weather by CustomWeather, © 2015

See weather overviewHow to use our weather pages